Tracking 25370 objects as of 25-Jan-2022
HD Live streaming from Space Station
objects crossing your sky now

STARLINK-1645

Track STARLINK-1645 now!
10-day predictions
STARLINK-1645 is classified as:


NORAD ID: 47622
Int'l Code: 2021-012C
Perigee: 553.0 km
Apogee: 555.7 km
Inclination: 53.1 °
Period: 95.6 minutes
Semi major axis: 6925 km
RCS: Unknown
Launch date: February 16, 2021
Source: United States (US)
Launch site: AIR FORCE EASTERN TEST RANGE (AFETR)
aabbcc
Your satellite tracking list
Your tracking list is empty




NASA's NSSDC Master Catalog

Two Line Element Set (TLE):
1 47622U 21012C   22025.16489071 -.00001773  00000-0 -10016-3 0  9995
2 47622  53.0563 345.6862 0001901  60.2160 299.9018 15.06395616 52709
Source of the keplerian elements: AFSPC